Home > Weather > Ballia > Past weeks

Flag for India Past Weather in Ballia, Uttar Pradesh, India — Yesterday and Last 2 Weeks

Now
88 °F

Broken clouds.


Feels Like: 98 °F
Forecast: 81 / 97 °F
Wind: 7 mph from Northeast

Location: Patna Airport

Current Time: Aug 26, 2016 at 12:34:34 PM

Latest Report: Aug 26, 2016 at 12:00 PM


Visibility: 3 mi

Pressure: 29.71 "Hg

Humidity: 66%

Dew Point: 75 °F

Location of BalliaLocation

Past Weather in Ballia — Graph

°F

Ballia Temperature Yesterday

Maximum temperature yesterday: 97 °F (at 2:00 PM)
Minimum temperature yesterday: 82 °F (at 5:30 AM)
Average temperature yesterday: 91 °F

High & Low Weather Summary for the Past Weeks

 TemperatureHumidityPressure
High97 °F (Aug 15, 2:30 PM)100% (Aug 26, 7:30 AM)29.74 "Hg (Aug 26, 7:30 AM)
Low79 °F (Aug 26, 8:30 AM)56% (Aug 24, 3:30 PM)29.33 "Hg (Aug 15, 3:00 PM)
Average87 °F78%29.51 "Hg
* Reported Aug 11 11:30 AM — Aug 26 11:30 AM, Ballia, Weather by CustomWeather, © 2016

Note: Actual official high and low records may vary slightly from our data, if they occured in-between our weather recording intervals... More about our weather records

Advertising

Ballia Weather History for the Previous 24 Hours

Scroll right to see more
 ConditionsComfort  
Time TempWeatherWind HumidityBarometerVisibility
11:30 AM
Fri, Aug 26
88 °FBroken clouds.9 mph66%29.74 "Hg3 mi
11:00 AM86 °FBroken clouds.9 mph75%29.74 "Hg3 mi
10:30 AM84 °FBroken clouds.12 mph74%29.74 "Hg2 mi
10:00 AM84 °FBroken clouds.10 mph74%29.74 "Hg2 mi
9:30 AM82 °FBroken clouds.8 mph84%29.74 "Hg2 mi
9:00 AM81 °FBroken clouds.6 mph89%29.71 "Hg2 mi
8:30 AM79 °FBroken clouds.3 mph94%29.71 "Hg1 mi
8:00 AM82 °FThunderstorms. More clouds than sun.3 mph100%29.71 "Hg1 mi
7:30 AM82 °FThunderstorms. More clouds than sun.5 mph100%29.68 "Hg1 mi
7:00 AM82 °FThunderstorms. More clouds than sun.9 mph94%29.68 "Hg1 mi
6:30 AM84 °FThunderstorms. Scattered clouds.9 mph89%29.65 "Hg1 mi
5:30 AM84 °FPassing clouds.9 mph89%29.65 "Hg2 mi
9:30 PM
Thu, Aug 25
84 °FPassing clouds.5 mph94%29.62 "Hg2 mi
9:00 PM84 °FPassing clouds.5 mph94%29.62 "Hg2 mi
8:30 PM86 °FPassing clouds.2 mph89%29.59 "Hg2 mi
8:00 PM86 °FPassing clouds.3 mph89%29.59 "Hg2 mi
7:30 PM88 °FPassing clouds.5 mph84%29.59 "Hg2 mi
7:00 PM88 °FPassing clouds.2 mph84%29.56 "Hg2 mi
6:30 PM90 °FScattered clouds.5 mph75%29.53 "Hg3 mi
6:00 PM91 °FScattered clouds.3 mph71%29.53 "Hg3 mi
5:30 PM93 °FScattered clouds.3 mph67%29.53 "Hg3 mi
5:00 PM93 °FScattered clouds.3 mph67%29.53 "Hg3 mi
4:30 PM95 °FScattered clouds.3 mph67%29.53 "Hg3 mi
4:00 PM95 °FScattered clouds.5 mph67%29.53 "Hg3 mi
3:30 PM95 °FScattered clouds.3 mph67%29.53 "Hg3 mi
3:00 PM95 °FScattered clouds.7 mph63%29.53 "Hg3 mi
2:30 PM97 °FScattered clouds.7 mph56%29.56 "Hg3 mi
2:00 PM97 °FScattered clouds.6 mph56%29.56 "Hg3 mi
1:30 PM95 °FScattered clouds.5 mph60%29.59 "Hg3 mi
1:00 PM95 °FScattered clouds.7 mph60%29.59 "Hg3 mi
12:30 PM95 °FScattered clouds.3 mph60%29.62 "Hg3 mi
12:00 PM95 °FScattered clouds.7 mph60%29.62 "Hg2 mi
Weather by CustomWeather, © 2016

See weather overviewHow to use our weather pages